Location: Evergreen Manor
(41.4083°N, 81.4939°W)
Time: 17:19:38
(UTC+00:00)

GRACE-FO 1 - Pass Details

Date: 11 December 2019
Orbit: 480 x 508 km, 89.0° (Epoch: 26 January)

Event Time Altitude Azimuth Distance (km) Brightness Sun altitude
Rises 11:04:53 0° 183° (S) 2,574 8.4 -17.5°
Reaches altitude 10° 11:06:58 10° 185° (S) 1,700 7.4 -17.1°
Maximum altitude 11:10:39 71° 270° (W) 537 4.5 -16.5°
Drops below altitude 10° 11:14:24 10° 355° (N) 1,727 7.1 -15.8°
Sets 11:16:32 0° 357° (N) 2,620 8.1 -15.4°
